Weather History for Whidbey Island, WA

Change the Weather History Date:

Tuesday, April 30, 2013

  Actual Average Record
Temperature  
Mean Temperature 45 °F -  
Max Temperature 51 °F 55 °F 71 °F (2004)
Min Temperature 39 °F 41 °F 37 °F (1999)
Degree Days  
Heating Degree Days 20    
Moisture  
Dew Point 34 °F    
Average Humidity 65    
Maximum Humidity 86    
Minimum Humidity 44    
Precipitation  
Precipitation 0.08 in - - ()
Sea Level Pressure  
Sea Level Pressure 30.31 in    
Wind  
Wind Speed 14 mph (West)    
Max Wind Speed 23 mph    
Max Gust Speed 31 mph    
Visibility 10 miles    
Events Rain    
Averages and records for this station are not official NWS values.
T = Trace of Precipitation, MM = Missing Value Source: NWS Daily Summary

Daily Weather History Graph

Daily Weather History Graph

Search for Another Location

Airport:

Trip Planner

Search our weather history database for the weather conditions in past years. The results will help you decide how hot, cold, wet, or windy it might be!

Date:

Astronomy

Apr. 30, 2013 Rise Set
Actual Time 5:52 AM PDT 8:23 PM PDT
Civil Twilight 5:17 AM PDT 8:58 PM PDT
Nautical Twilight 4:33 AM PDT 9:43 PM PDT
Astronomical Twilight 3:42 AM PDT 10:34 PM PDT
Moon 12:56 AM PDT (4/30) 10:23 AM PDT (4/30)
Length of Visible Light 15h 41m
Length of Day
14h 31m
Waning Gibbous, 69% of the Moon is Illuminated
Apr 30
Waning Gibbous
May 2
Last Quarter
May 9
New
May 17
First Quarter
May 24
Full

Hourly Weather History & Observations

Time (PDT) Temp. Windchill Dew Point Humidity Pressure Visibility Wind Dir Wind Speed Gust Speed Precip Events Conditions
12:56 AM 45.0 °F 36.6 °F 36.0 °F 71% 30.17 in 10.0 mi West 21.9 mph 31.1 mph 0.00 in Rain Light Rain
1:26 AM 44.6 °F 36.6 °F 35.6 °F 71% 30.16 in 10.0 mi West 19.6 mph - 0.00 in   Overcast
1:56 AM 44.1 °F 35.2 °F 37.0 °F 76% 30.18 in 10.0 mi West 23.0 mph 29.9 mph 0.00 in   Overcast
2:31 AM 44.6 °F 36.9 °F 35.6 °F 71% 30.18 in 10.0 mi West 18.4 mph 26.5 mph 0.00 in Rain Light Rain
2:56 AM 43.0 °F 35.1 °F 36.0 °F 76% 30.20 in 10.0 mi WNW 17.3 mph 21.9 mph 0.00 in Rain Light Rain
3:56 AM 39.9 °F 31.4 °F 36.0 °F 86% 30.22 in 7.0 mi West 16.1 mph - 0.07 in Rain Light Rain
4:56 AM 41.0 °F 33.9 °F 36.0 °F 82% 30.22 in 10.0 mi West 12.7 mph - 0.01 in   Overcast
5:56 AM 43.0 °F 36.8 °F 34.0 °F 71% 30.23 in 10.0 mi WNW 11.5 mph - N/A   Mostly Cloudy
6:00 AM 42.8 °F 36.6 °F 33.8 °F 70% 30.22 in 10.0 mi NW 11.5 mph - 0.00 in Rain Light Rain
6:56 AM 43.0 °F 38.2 °F 33.1 °F 68% 30.25 in 10.0 mi NW 8.1 mph - 0.00 in   Mostly Cloudy
7:56 AM 45.0 °F 38.5 °F 32.0 °F 60% 30.27 in 10.0 mi NNW 13.8 mph 19.6 mph N/A   Mostly Cloudy
8:56 AM 45.0 °F 39.3 °F 32.0 °F 60% 30.30 in 10.0 mi NW 11.5 mph - 0.00 in Rain Light Rain
9:16 AM 46.4 °F 41.5 °F 32.0 °F 57% 30.29 in 10.0 mi WNW 10.4 mph - 0.00 in   Mostly Cloudy
9:56 AM 46.9 °F - 32.0 °F 56% 30.31 in 10.0 mi WNW 6.9 mph - 0.00 in   Scattered Clouds
10:56 AM 48.9 °F - 33.1 °F 54% 30.33 in 10.0 mi NNW 9.2 mph - N/A   Mostly Cloudy
11:56 AM 48.9 °F - 34.0 °F 56% 30.35 in 10.0 mi West 5.8 mph - N/A   Mostly Cloudy
12:56 PM 48.9 °F - 35.1 °F 59% 30.36 in 10.0 mi WSW 8.1 mph - N/A   Scattered Clouds
1:56 PM 48.9 °F - 34.0 °F 56% 30.37 in 10.0 mi West 5.8 mph - N/A   Scattered Clouds
2:56 PM 50.0 °F - 32.0 °F 50% 30.38 in 10.0 mi West 5.8 mph - N/A   Scattered Clouds
3:56 PM 51.1 °F - 30.0 °F 44% 30.39 in 10.0 mi West 5.8 mph - N/A   Scattered Clouds
4:56 PM 50.0 °F - 33.1 °F 52% 30.39 in 10.0 mi West 6.9 mph - N/A   Scattered Clouds
5:56 PM 50.0 °F - 32.0 °F 50% 30.40 in 10.0 mi WSW 6.9 mph - N/A   Scattered Clouds
6:56 PM 48.9 °F - 36.0 °F 61% 30.40 in 10.0 mi West 5.8 mph - N/A   Scattered Clouds
7:56 PM 46.9 °F - 35.1 °F 63% 30.41 in 10.0 mi WSW 4.6 mph - N/A   Scattered Clouds
8:56 PM 45.0 °F 41.2 °F 37.0 °F 74% 30.43 in 10.0 mi West 6.9 mph - N/A   Scattered Clouds
9:56 PM 44.1 °F 40.8 °F 35.1 °F 71% 30.45 in 10.0 mi SW 5.8 mph - N/A   Partly Cloudy
10:56 PM 44.1 °F 40.1 °F 37.0 °F 76% 30.46 in 10.0 mi SW 6.9 mph - N/A   Clear
11:56 PM 44.1 °F 38.6 °F 37.0 °F 76% 30.47 in 10.0 mi SW 10.4 mph - N/A   Clear